This is the latest recevied weather packets stored in our database for station/object OK2KJT-11. If no packets are shown the sender has not sent any weather packets the latest 10 day(s).
| Time | Temp. | Humidity | Pressure | Rain* | Wind** | Luminosity | Snow |
|---|---|---|---|---|---|---|---|
| 1787585664 | 22.78° C | 32% | 1022.5 hPa | - | - | - | - |
| 1787585065 | 22.78° C | 33% | 1022.5 hPa | - | - | - | - |
| 1787584465 | 22.78° C | 33% | 1022.7 hPa | - | - | - | - |
| 1787583863 | 22.78° C | 33% | 1022.7 hPa | - | - | - | - |
| 1787583264 | 22.78° C | 34% | 1022.8 hPa | - | - | - | - |
| 1787582664 | 21.67° C | 37% | 1022.7 hPa | - | - | - | - |
| 1787582065 | 21.67° C | 36% | 1022.7 hPa | - | - | - | - |
| 1787581466 | 21.67° C | 36% | 1022.8 hPa | - | - | - | - |
| 1787580867 | 21.67° C | 35% | 1022.8 hPa | - | - | - | - |
| 1787580267 | 21.67° C | 36% | 1023 hPa | - | - | - | - |
| 1787579667 | 21.11° C | 35% | 1022.9 hPa | - | - | - | - |
| 1787579067 | 21.11° C | 36% | 1022.9 hPa | - | - | - | - |
| 1787578468 | 21.67° C | 36% | 1023 hPa | - | - | - | - |
| 1787577869 | 22.22° C | 36% | 1023 hPa | - | - | - | - |
| 1787577269 | 21.67° C | 37% | 1023.1 hPa | - | - | - | - |
| 1787576669 | 21.67° C | 39% | 1023.1 hPa | - | - | - | - |
| 1787576070 | 21.11° C | 39% | 1023.2 hPa | - | - | - | - |
| 1787575470 | 21.67° C | 38% | 1023.3 hPa | - | - | - | - |
| 1787574870 | 21.67° C | 38% | 1023.3 hPa | - | - | - | - |
| 1787574270 | 21.67° C | 40% | 1023.4 hPa | - | - | - | - |
| 1787573670 | 21.67° C | 40% | 1023.5 hPa | - | - | - | - |
| 1787573071 | 21.11° C | 41% | 1023.5 hPa | - | - | - | - |
| 1787571871 | 20.56° C | 41% | 1023.6 hPa | - | - | - | - |
| 1787571271 | 21.11° C | 41% | 1023.5 hPa | - | - | - | - |
| 1787570672 | 20.56° C | 44% | 1023.6 hPa | - | - | - | - |
* Rain since midnight (hover to see other rain measurements)
** Current wind speed in m/s (hover to see current wind gust speed)